TimeCST,TemperatureF,Dew PointF,Humidity,Sea Level PressureIn,VisibilityMPH,Wind Direction,Wind SpeedMPH,Gust SpeedMPH,PrecipitationIn,Events,Conditions,WindDirDegrees,DateUTC
12:15 AM,23.0,10.4,59,30.10,10.0,ESE,9.2,-,N/A,,Partly Cloudy,110,2013-03-04 06:15:00
12:35 AM,23.0,12.2,63,30.10,10.0,ESE,10.4,-,N/A,,Mostly Cloudy,110,2013-03-04 06:35:00
12:55 AM,23.0,12.2,63,30.10,10.0,ESE,10.4,-,N/A,,Overcast,110,2013-03-04 06:55:00
1:15 AM,23.0,12.2,63,30.09,10.0,East,11.5,-,N/A,,Mostly Cloudy,100,2013-03-04 07:15:00
1:35 AM,23.0,10.4,59,30.09,10.0,ESE,10.4,-,N/A,,Clear,110,2013-03-04 07:35:00
1:55 AM,23.0,10.4,59,30.09,10.0,ESE,10.4,-,N/A,,Clear,120,2013-03-04 07:55:00
2:15 AM,24.8,10.4,54,30.09,10.0,ESE,10.4,-,N/A,,Scattered Clouds,120,2013-03-04 08:15:00
2:35 AM,24.8,10.4,54,30.08,10.0,ESE,11.5,-,N/A,,Mostly Cloudy,120,2013-03-04 08:35:00
2:55 AM,23.0,12.2,63,30.07,10.0,ESE,11.5,-,N/A,,Partly Cloudy,110,2013-03-04 08:55:00
3:15 AM,23.0,10.4,59,30.06,10.0,ESE,12.7,-,N/A,,Clear,110,2013-03-04 09:15:00
3:35 AM,23.0,10.4,59,30.05,10.0,ESE,10.4,-,N/A,,Clear,110,2013-03-04 09:35:00
3:55 AM,23.0,12.2,63,30.05,10.0,ESE,12.7,-,N/A,,Mostly Cloudy,110,2013-03-04 09:55:00
4:15 AM,23.0,12.2,63,30.04,10.0,ESE,12.7,-,N/A,,Overcast,110,2013-03-04 10:15:00
4:35 AM,23.0,12.2,63,30.05,10.0,ESE,12.7,-,N/A,,Partly Cloudy,110,2013-03-04 10:35:00
4:55 AM,23.0,12.2,63,30.04,10.0,ESE,13.8,-,N/A,,Mostly Cloudy,110,2013-03-04 10:55:00
5:15 AM,24.8,14.0,64,30.04,10.0,ESE,13.8,-,N/A,,Mostly Cloudy,110,2013-03-04 11:15:00
5:35 AM,24.8,12.2,59,30.04,10.0,ESE,13.8,-,N/A,,Partly Cloudy,110,2013-03-04 11:35:00
6:15 AM,24.8,15.8,69,30.03,10.0,ESE,15.0,-,N/A,,Overcast,110,2013-03-04 12:15:00
6:35 AM,24.8,15.8,69,30.03,10.0,East,16.1,-,N/A,,Overcast,100,2013-03-04 12:35:00
6:55 AM,24.8,15.8,69,30.02,10.0,ESE,18.4,-,N/A,,Overcast,110,2013-03-04 12:55:00
7:15 AM,24.8,15.8,69,30.03,10.0,ESE,16.1,-,N/A,,Overcast,120,2013-03-04 13:15:00
7:35 AM,24.8,15.8,69,30.02,10.0,ESE,18.4,-,N/A,,Scattered Clouds,110,2013-03-04 13:35:00
7:55 AM,24.8,15.8,69,30.03,10.0,ESE,16.1,-,N/A,,Mostly Cloudy,120,2013-03-04 13:55:00
8:15 AM,24.8,17.6,74,30.03,3.0,ESE,19.6,-,N/A,,Overcast,110,2013-03-04 14:15:00
8:35 AM,24.8,17.6,74,30.02,4.0,ESE,19.6,-,N/A,,Mostly Cloudy,110,2013-03-04 14:35:00
8:55 AM,24.8,19.4,80,30.04,10.0,ESE,15.0,-,N/A,,Scattered Clouds,110,2013-03-04 14:55:00
9:15 AM,24.8,19.4,80,30.03,8.0,ESE,18.4,23.0,N/A,,Mostly Cloudy,110,2013-03-04 15:15:00
9:35 AM,26.6,19.4,74,30.03,8.0,ESE,17.3,-,N/A,,Partly Cloudy,110,2013-03-04 15:35:00
9:55 AM,26.6,19.4,74,30.02,8.0,East,18.4,-,N/A,,Mostly Cloudy,100,2013-03-04 15:55:00
10:15 AM,26.6,19.4,74,30.01,10.0,East,18.4,25.3,N/A,,Overcast,100,2013-03-04 16:15:00
10:35 AM,26.6,19.4,74,30.01,10.0,East,19.6,-,N/A,,Overcast,100,2013-03-04 16:35:00
10:55 AM,28.4,19.4,69,30.00,10.0,East,20.7,-,N/A,,Overcast,100,2013-03-04 16:55:00
11:15 AM,28.4,19.4,69,30.00,10.0,East,23.0,-,N/A,,Overcast,100,2013-03-04 17:15:00
11:35 AM,28.4,19.4,69,30.00,10.0,East,19.6,24.2,N/A,,Overcast,100,2013-03-04 17:35:00
11:55 AM,28.4,21.2,74,30.00,10.0,East,19.6,29.9,N/A,,Mostly Cloudy,100,2013-03-04 17:55:00
12:15 PM,30.2,21.2,69,29.99,10.0,East,24.2,28.8,N/A,,Scattered Clouds,100,2013-03-04 18:15:00
12:55 PM,30.2,21.2,69,29.97,10.0,ESE,27.6,34.5,N/A,,Mostly Cloudy,110,2013-03-04 18:55:00
1:15 PM,30.2,21.2,69,29.96,10.0,East,27.6,32.2,N/A,,Scattered Clouds,100,2013-03-04 19:15:00
1:35 PM,30.2,21.2,69,29.95,10.0,East,25.3,31.1,N/A,,Partly Cloudy,100,2013-03-04 19:35:00
1:55 PM,30.2,21.2,69,29.94,10.0,East,23.0,32.2,N/A,,Clear,100,2013-03-04 19:55:00
2:15 PM,32.0,21.2,64,29.95,10.0,East,20.7,29.9,N/A,,Clear,100,2013-03-04 20:15:00
2:35 PM,32.0,21.2,64,29.94,10.0,East,24.2,31.1,N/A,,Clear,100,2013-03-04 20:35:00
2:55 PM,32.0,19.4,60,29.94,10.0,East,21.9,28.8,N/A,,Clear,100,2013-03-04 20:55:00
3:15 PM,30.2,19.4,64,29.93,10.0,East,21.9,33.4,N/A,,Clear,100,2013-03-04 21:15:00
3:35 PM,30.2,19.4,64,29.94,10.0,ESE,20.7,28.8,N/A,,Clear,110,2013-03-04 21:35:00
3:55 PM,30.2,21.2,69,29.94,10.0,ESE,20.7,-,N/A,,Partly Cloudy,110,2013-03-04 21:55:00
4:15 PM,30.2,21.2,69,29.95,10.0,ESE,26.5,29.9,N/A,,Clear,110,2013-03-04 22:15:00
4:35 PM,30.2,21.2,69,29.94,10.0,ESE,23.0,26.5,N/A,,Partly Cloudy,110,2013-03-04 22:35:00
4:55 PM,30.2,21.2,69,29.95,10.0,East,18.4,24.2,N/A,,Clear,100,2013-03-04 22:55:00
5:15 PM,30.2,21.2,69,29.95,10.0,East,20.7,25.3,N/A,,Clear,100,2013-03-04 23:15:00
5:35 PM,28.4,21.2,74,29.95,10.0,East,17.3,-,N/A,,Clear,100,2013-03-04 23:35:00
5:55 PM,28.4,21.2,74,29.97,10.0,East,15.0,-,N/A,,Clear,100,2013-03-04 23:55:00
6:15 PM,28.4,19.4,69,29.97,10.0,East,13.8,-,N/A,,Clear,100,2013-03-05 00:15:00
6:35 PM,28.4,19.4,69,29.98,10.0,East,13.8,-,N/A,,Clear,90,2013-03-05 00:35:00
6:55 PM,28.4,19.4,69,29.99,10.0,East,13.8,-,N/A,,Clear,100,2013-03-05 00:55:00
7:15 PM,28.4,21.2,74,29.98,10.0,East,13.8,-,N/A,,Clear,100,2013-03-05 01:15:00
7:35 PM,28.4,21.2,74,29.99,10.0,East,16.1,-,N/A,,Scattered Clouds,90,2013-03-05 01:35:00
7:55 PM,28.4,21.2,74,29.99,10.0,East,13.8,-,N/A,,Overcast,90,2013-03-05 01:55:00
8:35 PM,28.4,19.4,69,29.99,10.0,East,15.0,-,N/A,,Overcast,80,2013-03-05 02:35:00
8:55 PM,28.4,21.2,74,30.00,10.0,East,13.8,-,N/A,,Mostly Cloudy,90,2013-03-05 02:55:00
9:15 PM,28.4,21.2,74,29.99,10.0,East,13.8,-,N/A,,Overcast,90,2013-03-05 03:15:00
9:35 PM,28.4,21.2,74,29.98,10.0,East,13.8,-,N/A,,Overcast,90,2013-03-05 03:35:00
9:55 PM,28.4,21.2,74,29.97,10.0,East,16.1,-,N/A,,Overcast,90,2013-03-05 03:55:00
10:15 PM,28.4,21.2,74,29.98,10.0,East,15.0,-,N/A,,Overcast,90,2013-03-05 04:15:00
10:35 PM,28.4,21.2,74,29.98,10.0,East,15.0,-,N/A,,Overcast,90,2013-03-05 04:35:00
10:55 PM,30.2,21.2,69,29.98,10.0,East,13.8,-,N/A,,Overcast,90,2013-03-05 04:55:00
11:15 PM,30.2,21.2,69,29.98,10.0,East,10.4,-,N/A,,Overcast,80,2013-03-05 05:15:00
11:35 PM,30.2,21.2,69,29.98,10.0,East,11.5,-,N/A,,Overcast,80,2013-03-05 05:35:00
11:55 PM,30.2,21.2,69,29.97,10.0,East,11.5,-,N/A,,Overcast,80,2013-03-05 05:55:00